date,time,SUV Intensity [MED/Hr],UV Index,Daily total [MED],Since Last [MED]
26/04/2022,00:07:22,0.000,0.0,0.0,0.0
26/04/2022,00:08:21,0.000,0.0,0.0,0.0
26/04/2022,00:09:22,0.000,0.0,0.0,0.0
26/04/2022,00:10:21,0.000,0.0,0.0,0.0
26/04/2022,00:11:21,-0.000,0.0,0.0,0.0
26/04/2022,00:12:21,0.000,0.0,0.0,0.0
26/04/2022,00:13:21,-0.000,0.0,0.0,0.0
26/04/2022,00:14:29,0.000,0.0,0.0,0.0
26/04/2022,00:16:22,-0.002,0.0,0.0,0.0
26/04/2022,00:17:21,0.001,0.0,0.0,0.0
26/04/2022,00:18:21,0.000,0.0,0.0,0.0
26/04/2022,00:19:21,0.001,0.0,0.0,0.0
26/04/2022,00:20:21,-0.001,0.0,0.0,0.0
26/04/2022,00:21:22,0.000,0.0,0.0,0.0
26/04/2022,00:22:21,-0.001,0.0,0.0,0.0
26/04/2022,00:23:22,0.000,0.0,0.0,0.0
26/04/2022,00:24:30,0.000,0.0,0.0,0.0
26/04/2022,00:26:22,-0.000,0.0,0.0,0.0
26/04/2022,00:27:21,-0.001,0.0,0.0,0.0
26/04/2022,00:28:21,0.001,0.0,0.0,0.0
26/04/2022,00:29:21,0.000,0.0,0.0,0.0
26/04/2022,00:30:22,0.000,0.0,0.0,0.0
26/04/2022,00:31:21,0.001,0.0,0.0,0.0
26/04/2022,00:32:21,0.000,0.0,0.0,0.0
26/04/2022,00:33:21,0.000,0.0,0.0,0.0
26/04/2022,00:34:29,0.000,0.0,0.0,0.0
26/04/2022,00:36:22,0.000,0.0,0.0,0.0
26/04/2022,00:37:20,0.000,0.0,0.0,0.0
26/04/2022,00:38:21,-0.000,0.0,0.0,0.0
26/04/2022,00:39:21,0.000,0.0,0.0,0.0
26/04/2022,00:40:21,-0.000,0.0,0.0,0.0
26/04/2022,00:41:21,0.000,0.0,0.0,0.0
26/04/2022,00:42:23,-0.001,0.0,0.0,0.0
26/04/2022,00:43:21,0.000,0.0,0.0,0.0
26/04/2022,00:44:21,0.001,0.0,0.0,0.0
26/04/2022,00:45:21,-0.000,0.0,0.0,0.0
26/04/2022,00:46:21,-0.001,0.0,0.0,0.0
26/04/2022,00:47:30,0.000,0.0,0.0,0.0
26/04/2022,00:49:22,0.001,0.0,0.0,0.0
26/04/2022,00:50:21,0.000,0.0,0.0,0.0
26/04/2022,00:51:21,0.000,0.0,0.0,0.0
26/04/2022,00:52:22,0.001,0.0,0.0,0.0
26/04/2022,00:53:21,0.000,0.0,0.0,0.0
26/04/2022,00:54:21,0.000,0.0,0.0,0.0
26/04/2022,00:55:21,0.001,0.0,0.0,0.0
26/04/2022,00:56:21,-0.001,0.0,0.0,0.0
26/04/2022,00:57:30,-0.000,0.0,0.0,0.0
26/04/2022,00:59:30,-0.000,0.0,0.0,0.0
26/04/2022,01:01:22,0.000,0.0,0.0,0.0
26/04/2022,01:02:21,0.000,0.0,0.0,0.0
26/04/2022,01:03:21,0.000,0.0,0.0,0.0
26/04/2022,01:04:22,-0.001,0.0,0.0,0.0
26/04/2022,01:05:21,0.000,0.0,0.0,0.0
26/04/2022,01:06:22,-0.001,0.0,0.0,0.0
26/04/2022,01:07:21,-0.001,0.0,0.0,0.0
26/04/2022,01:08:22,0.000,0.0,0.0,0.0
26/04/2022,01:09:22,0.000,0.0,0.0,0.0
26/04/2022,01:10:21,0.000,0.0,0.0,0.0
26/04/2022,01:11:21,0.000,0.0,0.0,0.0
26/04/2022,01:12:21,-0.000,0.0,0.0,0.0
26/04/2022,01:13:22,0.000,0.0,0.0,0.0
26/04/2022,01:14:21,0.000,0.0,0.0,0.0
26/04/2022,01:15:21,0.001,0.0,0.0,0.0
26/04/2022,01:16:21,0.000,0.0,0.0,0.0
26/04/2022,01:17:23,0.001,0.0,0.0,0.0
26/04/2022,01:18:29,0.001,0.0,0.0,0.0
26/04/2022,01:20:22,0.000,0.0,0.0,0.0
26/04/2022,01:21:22,-0.001,0.0,0.0,0.0
26/04/2022,01:22:21,0.000,0.0,0.0,0.0
26/04/2022,01:23:21,0.000,0.0,0.0,0.0
26/04/2022,01:24:21,0.000,0.0,0.0,0.0
26/04/2022,01:25:21,0.000,0.0,0.0,0.0
26/04/2022,01:26:21,0.001,0.0,0.0,0.0
26/04/2022,01:27:22,0.000,0.0,0.0,0.0
26/04/2022,01:28:30,-0.001,0.0,0.0,0.0
26/04/2022,01:30:22,0.001,0.0,0.0,0.0
26/04/2022,01:31:21,0.001,0.0,0.0,0.0
26/04/2022,01:32:22,0.001,0.0,0.0,0.0
26/04/2022,01:33:21,0.001,0.0,0.0,0.0
26/04/2022,01:34:21,0.000,0.0,0.0,0.0
26/04/2022,01:35:21,0.000,0.0,0.0,0.0
26/04/2022,01:36:22,0.000,0.0,0.0,0.0
26/04/2022,01:37:21,0.000,0.0,0.0,0.0
26/04/2022,01:38:30,0.002,0.0,0.0,0.0
26/04/2022,01:40:22,0.000,0.0,0.0,0.0
26/04/2022,01:41:21,0.000,0.0,0.0,0.0
26/04/2022,01:42:21,0.000,0.0,0.0,0.0
26/04/2022,01:43:21,0.000,0.0,0.0,0.0
26/04/2022,01:44:22,0.001,0.0,0.0,0.0
26/04/2022,01:45:30,0.000,0.0,0.0,0.0
26/04/2022,01:47:22,0.000,0.0,0.0,0.0
26/04/2022,01:48:21,0.000,0.0,0.0,0.0
26/04/2022,01:49:22,0.000,0.0,0.0,0.0
26/04/2022,01:50:21,0.000,0.0,0.0,0.0
26/04/2022,01:51:29,0.001,0.0,0.0,0.0
26/04/2022,01:53:38,0.000,0.0,0.0,0.0
26/04/2022,01:55:22,0.000,0.0,0.0,0.0
26/04/2022,01:56:22,0.000,0.0,0.0,0.0
26/04/2022,01:57:21,0.001,0.0,0.0,0.0
26/04/2022,01:58:21,0.001,0.0,0.0,0.0
26/04/2022,01:59:22,0.001,0.0,0.0,0.0
26/04/2022,02:00:22,-0.000,0.0,0.0,0.0
26/04/2022,02:01:22,0.001,0.0,0.0,0.0
26/04/2022,02:02:21,0.001,0.0,0.0,0.0
26/04/2022,02:03:21,0.001,0.0,0.0,0.0
26/04/2022,02:04:21,0.000,0.0,0.0,0.0
26/04/2022,02:05:22,0.000,0.0,0.0,0.0
26/04/2022,02:06:21,0.001,0.0,0.0,0.0
26/04/2022,02:07:22,0.001,0.0,0.0,0.0
26/04/2022,02:08:22,0.001,0.0,0.0,0.0
26/04/2022,02:09:21,0.001,0.0,0.0,0.0
26/04/2022,02:10:22,0.001,0.0,0.0,0.0
26/04/2022,02:11:22,0.001,0.0,0.0,0.0
26/04/2022,02:12:21,0.000,0.0,0.0,0.0
26/04/2022,02:13:20,0.001,0.0,0.0,0.0
26/04/2022,02:14:22,0.001,0.0,0.0,0.0
26/04/2022,02:15:22,0.001,0.0,0.0,0.0
26/04/2022,02:16:21,0.001,0.0,0.0,0.0
26/04/2022,02:17:21,-0.000,0.0,0.0,0.0
26/04/2022,02:18:22,0.000,0.0,0.0,0.0
26/04/2022,02:19:21,0.001,0.0,0.0,0.0
26/04/2022,02:20:21,0.001,0.0,0.0,0.0
26/04/2022,02:21:22,0.001,0.0,0.0,0.0
26/04/2022,02:22:21,0.001,0.0,0.0,0.0
26/04/2022,02:23:21,0.000,0.0,0.0,0.0
26/04/2022,02:24:21,0.000,0.0,0.0,0.0
26/04/2022,02:25:21,0.001,0.0,0.0,0.0
26/04/2022,02:26:22,0.002,0.0,0.0,0.0
26/04/2022,02:27:22,0.001,0.0,0.0,0.0
26/04/2022,02:28:21,0.001,0.0,0.0,0.0
26/04/2022,02:29:28,0.001,0.0,0.0,0.0
26/04/2022,02:30:20,0.000,0.0,0.0,0.0
26/04/2022,02:31:22,0.001,0.0,0.0,0.0
26/04/2022,02:32:31,0.002,0.0,0.0,0.0
26/04/2022,02:34:22,0.001,0.0,0.0,0.0
26/04/2022,02:35:21,0.000,0.0,0.0,0.0
26/04/2022,02:36:22,0.001,0.0,0.0,0.0
26/04/2022,02:37:21,0.001,0.0,0.0,0.0
26/04/2022,02:38:21,0.001,0.0,0.0,0.0
26/04/2022,02:39:29,0.001,0.0,0.0,0.0
26/04/2022,02:40:20,0.002,0.0,0.0,0.0
26/04/2022,02:41:21,-0.000,0.0,0.0,0.0
26/04/2022,02:42:21,0.001,0.0,0.0,0.0
26/04/2022,02:43:22,-0.000,0.0,0.0,0.0
26/04/2022,02:44:21,-0.000,0.0,0.0,0.0
26/04/2022,02:45:22,0.001,0.0,0.0,0.0
26/04/2022,02:46:21,0.001,0.0,0.0,0.0
26/04/2022,02:47:22,0.001,0.0,0.0,0.0
26/04/2022,02:48:21,0.001,0.0,0.0,0.0
26/04/2022,02:49:30,0.001,0.0,0.0,0.0
26/04/2022,02:51:22,0.000,0.0,0.0,0.0
26/04/2022,02:52:21,0.001,0.0,0.0,0.0
26/04/2022,02:53:22,0.001,0.0,0.0,0.0
26/04/2022,02:54:22,0.001,0.0,0.0,0.0
26/04/2022,02:55:22,0.000,0.0,0.0,0.0
26/04/2022,02:57:22,0.001,0.0,0.0,0.0
26/04/2022,02:58:21,0.001,0.0,0.0,0.0
26/04/2022,02:59:21,-0.000,0.0,0.0,0.0
26/04/2022,03:00:30,0.001,0.0,0.0,0.0
26/04/2022,03:02:22,0.001,0.0,0.0,0.0
26/04/2022,03:03:23,0.000,0.0,0.0,0.0
26/04/2022,03:04:21,-0.000,0.0,0.0,0.0
26/04/2022,03:05:21,0.001,0.0,0.0,0.0
26/04/2022,03:06:22,0.001,0.0,0.0,0.0
26/04/2022,03:07:25,0.001,0.0,0.0,0.0
26/04/2022,03:08:21,-0.001,0.0,0.0,0.0
26/04/2022,03:09:22,0.001,0.0,0.0,0.0
26/04/2022,03:10:30,0.001,0.0,0.0,0.0
26/04/2022,03:12:22,0.001,0.0,0.0,0.0
26/04/2022,03:13:22,0.001,0.0,0.0,0.0
26/04/2022,03:14:21,0.000,0.0,0.0,0.0
26/04/2022,03:15:21,0.002,0.0,0.0,0.0
26/04/2022,03:16:22,0.001,0.0,0.0,0.0
26/04/2022,03:17:31,-0.000,0.0,0.0,0.0
26/04/2022,03:19:22,0.000,0.0,0.0,0.0
26/04/2022,03:20:21,0.000,0.0,0.0,0.0
26/04/2022,03:21:21,0.000,0.0,0.0,0.0
26/04/2022,03:22:21,0.000,0.0,0.0,0.0
26/04/2022,03:23:22,0.001,0.0,0.0,0.0
26/04/2022,03:24:21,-0.000,0.0,0.0,0.0
26/04/2022,03:25:22,0.000,0.0,0.0,0.0
26/04/2022,03:26:22,0.001,0.0,0.0,0.0
26/04/2022,03:27:29,-0.001,0.0,0.0,0.0
26/04/2022,03:29:22,-0.000,0.0,0.0,0.0
26/04/2022,03:30:29,-0.001,0.0,0.0,0.0
26/04/2022,03:32:13,0.000,0.0,0.0,0.0
26/04/2022,03:33:23,0.000,0.0,0.0,0.0
26/04/2022,03:34:22,-0.001,0.0,0.0,0.0
26/04/2022,03:35:22,0.000,0.0,0.0,0.0
26/04/2022,03:36:21,0.000,0.0,0.0,0.0
26/04/2022,03:37:21,0.000,0.0,0.0,0.0
26/04/2022,03:38:21,-0.001,0.0,0.0,0.0
26/04/2022,03:39:22,0.000,0.0,0.0,0.0
26/04/2022,03:40:30,0.000,0.0,0.0,0.0
26/04/2022,03:41:20,0.001,0.0,0.0,0.0
26/04/2022,03:42:21,-0.001,0.0,0.0,0.0
26/04/2022,03:43:21,0.001,0.0,0.0,0.0
26/04/2022,03:44:22,0.000,0.0,0.0,0.0
26/04/2022,03:45:21,-0.001,0.0,0.0,0.0
26/04/2022,03:46:21,-0.001,0.0,0.0,0.0
26/04/2022,03:47:21,0.000,0.0,0.0,0.0
26/04/2022,03:48:22,0.000,0.0,0.0,0.0
26/04/2022,03:49:21,0.000,0.0,0.0,0.0
26/04/2022,03:50:21,0.000,0.0,0.0,0.0
26/04/2022,03:51:21,-0.000,0.0,0.0,0.0
26/04/2022,03:52:22,0.000,0.0,0.0,0.0
26/04/2022,03:53:21,0.000,0.0,0.0,0.0
26/04/2022,03:54:21,0.001,0.0,0.0,0.0
26/04/2022,03:55:22,0.000,0.0,0.0,0.0
26/04/2022,03:56:22,0.000,0.0,0.0,0.0
26/04/2022,03:57:24,-0.001,0.0,0.0,0.0
26/04/2022,03:58:29,-0.001,0.0,0.0,0.0
26/04/2022,04:00:22,0.000,0.0,0.0,0.0
26/04/2022,04:01:22,0.000,0.0,0.0,0.0
26/04/2022,04:02:21,0.000,0.0,0.0,0.0
26/04/2022,04:03:21,0.000,0.0,0.0,0.0
26/04/2022,04:04:22,0.001,0.0,0.0,0.0
26/04/2022,04:05:22,0.000,0.0,0.0,0.0
26/04/2022,04:06:22,0.000,0.0,0.0,0.0
26/04/2022,04:07:21,0.000,0.0,0.0,0.0
26/04/2022,04:08:30,0.000,0.0,0.0,0.0
26/04/2022,04:10:22,0.000,0.0,0.0,0.0
26/04/2022,04:11:22,0.000,0.0,0.0,0.0
26/04/2022,04:12:21,0.000,0.0,0.0,0.0
26/04/2022,04:13:22,0.001,0.0,0.0,0.0
26/04/2022,04:14:21,0.000,0.0,0.0,0.0
26/04/2022,04:15:22,0.001,0.0,0.0,0.0
26/04/2022,04:16:22,0.000,0.0,0.0,0.0
26/04/2022,04:17:21,0.000,0.0,0.0,0.0
26/04/2022,04:18:30,0.000,0.0,0.0,0.0
26/04/2022,04:20:22,-0.001,0.0,0.0,0.0
26/04/2022,04:21:22,-0.001,0.0,0.0,0.0
26/04/2022,04:22:21,0.000,0.0,0.0,0.0
26/04/2022,04:23:21,0.000,0.0,0.0,0.0
26/04/2022,04:24:22,0.000,0.0,0.0,0.0
26/04/2022,04:25:21,0.001,0.0,0.0,0.0
26/04/2022,04:26:22,0.000,0.0,0.0,0.0
26/04/2022,04:27:22,-0.001,0.0,0.0,0.0
26/04/2022,04:28:22,0.000,0.0,0.0,0.0
26/04/2022,04:29:22,0.000,0.0,0.0,0.0
26/04/2022,04:30:21,0.000,0.0,0.0,0.0
26/04/2022,04:31:21,-0.001,0.0,0.0,0.0
26/04/2022,04:32:22,-0.001,0.0,0.0,0.0
26/04/2022,04:33:21,-0.001,0.0,0.0,0.0
26/04/2022,04:34:22,0.000,0.0,0.0,0.0
26/04/2022,04:35:22,0.000,0.0,0.0,0.0
26/04/2022,04:36:22,0.000,0.0,0.0,0.0
26/04/2022,04:37:22,0.000,0.0,0.0,0.0
26/04/2022,04:38:22,-0.001,0.0,0.0,0.0
26/04/2022,04:39:30,0.000,0.0,0.0,0.0
26/04/2022,04:41:22,0.000,0.0,0.0,0.0
26/04/2022,04:42:21,0.000,0.0,0.0,0.0
26/04/2022,04:43:22,0.000,0.0,0.0,0.0
26/04/2022,04:44:22,0.000,0.0,0.0,0.0
26/04/2022,04:45:21,0.000,0.0,0.0,0.0
26/04/2022,04:46:21,0.001,0.0,0.0,0.0
26/04/2022,04:47:22,0.001,0.0,0.0,0.0
26/04/2022,04:48:22,0.001,0.0,0.0,0.0
26/04/2022,04:49:31,0.001,0.0,0.0,0.0
26/04/2022,04:51:22,0.001,0.0,0.0,0.0
26/04/2022,04:52:22,0.002,0.0,0.0,0.0
26/04/2022,04:53:21,0.002,0.0,0.0,0.0
26/04/2022,04:54:23,0.001,0.0,0.0,0.0
26/04/2022,04:55:22,0.002,0.0,0.0,0.0
26/04/2022,04:56:30,0.002,0.0,0.0,0.0
26/04/2022,04:58:23,0.003,0.0,0.0,0.0
26/04/2022,04:59:21,0.003,0.0,0.0,0.0
26/04/2022,05:00:22,0.002,0.0,0.0,0.0
26/04/2022,05:01:22,0.002,0.0,0.0,0.0
26/04/2022,05:02:21,0.002,0.0,0.0,0.0
26/04/2022,05:03:23,0.001,0.0,0.0,0.0
26/04/2022,05:04:21,0.002,0.0,0.0,0.0
26/04/2022,05:05:22,0.003,0.0,0.0,0.0
26/04/2022,05:06:21,0.003,0.0,0.0,0.0
26/04/2022,05:07:21,0.003,0.0,0.0,0.0
26/04/2022,05:08:22,0.002,0.0,0.0,0.0
26/04/2022,05:09:22,0.002,0.0,0.0,0.0
26/04/2022,05:10:21,0.003,0.0,0.0,0.0
26/04/2022,05:11:22,0.003,0.0,0.0,0.0
26/04/2022,05:12:21,0.003,0.0,0.0,0.0
26/04/2022,05:13:22,0.003,0.0,0.0,0.0
26/04/2022,05:14:20,0.003,0.0,0.0,0.0
26/04/2022,05:15:22,0.004,0.0,0.0,0.0
26/04/2022,05:16:21,0.005,0.0,0.0,0.0
26/04/2022,05:17:30,0.005,0.0,0.0,0.0
26/04/2022,05:19:22,0.005,0.0,0.0,0.0
26/04/2022,05:20:22,0.005,0.0,0.0,0.0
26/04/2022,05:21:21,0.005,0.0,0.0,0.0
26/04/2022,05:22:22,0.006,0.0,0.0,0.0
26/04/2022,05:23:22,0.005,0.0,0.0,0.0
26/04/2022,05:24:21,0.006,0.0,0.0,0.0
26/04/2022,05:25:21,0.007,0.0,0.0,0.0
26/04/2022,05:26:21,0.006,0.0,0.0,0.0
26/04/2022,05:27:30,0.006,0.0,0.0,0.0
26/04/2022,05:29:23,0.006,0.0,0.0,0.0
26/04/2022,05:30:21,0.007,0.0,0.0,0.0
26/04/2022,05:31:22,0.007,0.0,0.0,0.0
26/04/2022,05:32:21,0.008,0.0,0.001,0.001
26/04/2022,05:33:21,0.008,0.0,0.001,0.0
26/04/2022,05:34:30,0.008,0.0,0.001,0.0
26/04/2022,05:36:22,0.008,0.0,0.001,0.0
26/04/2022,05:37:21,0.009,0.0,0.001,0.0
26/04/2022,05:38:21,0.011,0.0,0.001,0.0
26/04/2022,05:39:22,0.011,0.0,0.002,0.001
26/04/2022,05:40:22,0.011,0.0,0.002,0.0
26/04/2022,05:41:22,0.012,0.0,0.002,0.0
26/04/2022,05:42:22,0.013,0.0,0.002,0.0
26/04/2022,05:43:22,0.013,0.0,0.002,0.0
26/04/2022,05:44:31,0.013,0.0,0.003,0.001
26/04/2022,05:46:31,0.014,0.0,0.003,0.0
26/04/2022,05:48:22,0.016,0.0,0.003,0.0
26/04/2022,05:49:30,0.018,0.0,0.004,0.001
26/04/2022,05:51:22,0.017,0.0,0.004,0.0
26/04/2022,05:52:22,0.016,0.0,0.005,0.001
26/04/2022,05:53:37,0.017,0.0,0.005,0.0
26/04/2022,05:55:23,0.017,0.0,0.006,0.001
26/04/2022,05:56:22,0.019,0.0,0.006,0.0
26/04/2022,05:57:22,0.017,0.0,0.006,0.0
26/04/2022,05:58:22,0.018,0.0,0.006,0.0
26/04/2022,05:59:22,0.022,0.0,0.007,0.001
26/04/2022,06:00:22,0.024,0.0,0.007,0.0
26/04/2022,06:01:22,0.024,0.0,0.008,0.001
26/04/2022,06:02:21,0.023,0.0,0.008,0.0
26/04/2022,06:03:22,0.022,0.0,0.008,0.0
26/04/2022,06:04:22,0.022,0.0,0.009,0.001
26/04/2022,06:05:30,0.024,0.0,0.009,0.0
26/04/2022,06:07:22,0.021,0.0,0.01,0.001
26/04/2022,06:08:22,0.021,0.0,0.01,0.0
26/04/2022,06:09:22,0.023,0.0,0.011,0.001
26/04/2022,06:10:22,0.027,0.0,0.011,0.0
26/04/2022,06:11:22,0.030,0.0,0.011,0.0
26/04/2022,06:12:22,0.030,0.0,0.012,0.001
26/04/2022,06:13:22,0.033,0.0,0.012,0.0
26/04/2022,06:14:22,0.035,0.0,0.013,0.001
26/04/2022,06:15:30,0.039,0.0,0.014,0.001
26/04/2022,06:17:30,0.042,0.0,0.015,0.001
26/04/2022,06:19:22,0.043,0.0,0.016,0.001
26/04/2022,06:20:22,0.050,0.0,0.017,0.001
26/04/2022,06:21:30,0.052,0.0,0.018,0.001
26/04/2022,06:23:22,0.051,0.0,0.02,0.002
26/04/2022,06:24:22,0.054,0.0,0.021,0.001
26/04/2022,06:25:22,0.051,0.0,0.021,0.0
26/04/2022,06:26:30,0.048,0.0,0.022,0.001
26/04/2022,06:28:22,0.045,0.0,0.024,0.002
26/04/2022,06:29:22,0.045,0.0,0.025,0.001
26/04/2022,06:30:22,0.045,0.0,0.025,0.0
26/04/2022,06:31:22,0.045,0.0,0.026,0.001
26/04/2022,06:32:22,0.048,0.0,0.027,0.001
26/04/2022,06:33:22,0.051,0.0,0.028,0.001
26/04/2022,06:34:21,0.052,0.0,0.028,0.0
26/04/2022,06:35:22,0.051,0.0,0.029,0.001
26/04/2022,06:36:30,0.051,0.0,0.03,0.001
26/04/2022,06:37:22,0.053,0.0,0.031,0.001
26/04/2022,06:38:21,0.054,0.0,0.032,0.001
26/04/2022,06:39:22,0.055,0.0,0.033,0.001
26/04/2022,06:40:21,0.053,0.0,0.034,0.001
26/04/2022,06:41:22,0.052,0.0,0.035,0.001
26/04/2022,06:42:22,0.054,0.0,0.036,0.001
26/04/2022,06:43:22,0.058,0.0,0.036,0.0
26/04/2022,06:44:22,0.063,0.0,0.038,0.002
26/04/2022,06:45:22,0.064,0.0,0.039,0.001
26/04/2022,06:46:31,0.063,0.0,0.04,0.001
26/04/2022,06:47:30,0.064,0.0,0.041,0.001
26/04/2022,06:48:21,0.066,0.0,0.042,0.001
26/04/2022,06:49:22,0.066,0.0,0.043,0.001
26/04/2022,06:50:22,0.068,0.0,0.044,0.001
26/04/2022,06:51:22,0.073,0.0,0.045,0.001
26/04/2022,06:52:22,0.079,0.0,0.046,0.001
26/04/2022,06:53:31,0.085,0.0,0.048,0.002
26/04/2022,06:55:22,0.099,0.0,0.051,0.003
26/04/2022,06:56:22,0.110,0.0,0.053,0.002
26/04/2022,06:57:22,0.111,0.0,0.054,0.001
26/04/2022,06:58:22,0.108,0.0,0.056,0.002
26/04/2022,06:59:21,0.105,0.0,0.058,0.002
26/04/2022,07:00:31,0.110,0.0,0.06,0.002
26/04/2022,07:01:22,0.114,0.0,0.062,0.002
26/04/2022,07:02:22,0.120,0.0,0.064,0.002
26/04/2022,07:03:22,0.123,0.0,0.066,0.002
26/04/2022,07:04:22,0.116,0.0,0.068,0.002
26/04/2022,07:05:22,0.114,0.0,0.07,0.002
26/04/2022,07:06:22,0.125,0.0,0.071,0.001
26/04/2022,07:07:22,0.136,0.0,0.074,0.003
26/04/2022,07:08:30,0.134,0.0,0.076,0.002
26/04/2022,07:10:13,0.132,0.0,0.08,0.004
26/04/2022,07:11:23,0.131,0.0,0.083,0.003
26/04/2022,07:12:21,0.126,0.0,0.085,0.002
26/04/2022,07:13:22,0.125,0.0,0.087,0.002
26/04/2022,07:14:22,0.132,0.0,0.089,0.002
26/04/2022,07:15:22,0.132,0.0,0.091,0.002
26/04/2022,07:16:22,0.131,0.0,0.093,0.002
26/04/2022,07:17:22,0.132,0.0,0.095,0.002
26/04/2022,07:18:30,0.143,0.0,0.098,0.003
26/04/2022,07:20:23,0.139,0.0,0.103,0.005
26/04/2022,07:21:30,0.130,0.0,0.105,0.002
26/04/2022,07:23:22,0.139,0.0,0.109,0.004
26/04/2022,07:24:22,0.150,0.0,0.112,0.003
26/04/2022,07:25:22,0.170,0.0,0.114,0.002
26/04/2022,07:26:22,0.173,0.0,0.117,0.003
26/04/2022,07:27:22,0.173,0.0,0.12,0.003
26/04/2022,07:28:30,0.173,0.0,0.123,0.003
26/04/2022,07:29:22,0.170,0.0,0.126,0.003
26/04/2022,07:30:22,0.178,0.0,0.129,0.003
26/04/2022,07:31:22,0.192,0.0,0.132,0.003
26/04/2022,07:32:22,0.190,0.0,0.135,0.003
26/04/2022,07:33:21,0.179,0.0,0.138,0.003
26/04/2022,07:34:22,0.173,0.0,0.141,0.003
26/04/2022,07:35:22,0.172,0.0,0.144,0.003
26/04/2022,07:36:22,0.168,0.0,0.147,0.003
26/04/2022,07:37:22,0.169,0.0,0.149,0.002
26/04/2022,07:38:22,0.193,0.0,0.152,0.003
26/04/2022,07:39:22,0.233,1.0,0.156,0.004
26/04/2022,07:40:22,0.239,1.0,0.16,0.004
26/04/2022,07:41:22,0.239,1.0,0.164,0.004
26/04/2022,07:42:30,0.231,1.0,0.168,0.004
26/04/2022,07:44:22,0.232,1.0,0.176,0.008
26/04/2022,07:45:22,0.242,1.0,0.179,0.003
26/04/2022,07:46:22,0.238,1.0,0.184,0.005
26/04/2022,07:47:22,0.231,1.0,0.187,0.003
26/04/2022,07:48:22,0.237,1.0,0.191,0.004
26/04/2022,07:49:22,0.261,1.0,0.195,0.004
26/04/2022,07:50:22,0.264,1.0,0.2,0.005
26/04/2022,07:51:22,0.260,1.0,0.204,0.004
26/04/2022,07:52:30,0.298,1.0,0.21,0.006
26/04/2022,07:54:22,0.328,1.0,0.219,0.009
26/04/2022,07:55:22,0.298,1.0,0.224,0.005
26/04/2022,07:56:22,0.336,1.0,0.23,0.006
26/04/2022,07:57:22,0.377,1.0,0.236,0.006
26/04/2022,07:58:22,0.383,1.0,0.242,0.006
26/04/2022,07:59:30,0.392,1.0,0.249,0.007
26/04/2022,08:01:23,0.398,1.0,0.262,0.013
26/04/2022,08:02:22,0.404,1.0,0.268,0.006
26/04/2022,08:03:22,0.390,1.0,0.274,0.006
26/04/2022,08:04:22,0.412,1.0,0.281,0.007
26/04/2022,08:05:22,0.418,1.0,0.288,0.007
26/04/2022,08:06:21,0.361,1.0,0.294,0.006
26/04/2022,08:07:22,0.404,1.0,0.301,0.007
26/04/2022,08:08:22,0.385,1.0,0.308,0.007
26/04/2022,08:09:22,0.398,1.0,0.315,0.007
26/04/2022,08:10:30,0.402,1.0,0.322,0.007
26/04/2022,08:12:23,0.411,1.0,0.336,0.014
26/04/2022,08:13:21,0.387,1.0,0.342,0.006
26/04/2022,08:14:22,0.385,1.0,0.349,0.007
26/04/2022,08:15:22,0.435,1.0,0.356,0.007
26/04/2022,08:16:22,0.400,1.0,0.362,0.006
26/04/2022,08:17:13,0.395,1.0,0.368,0.006
26/04/2022,08:18:22,0.409,1.0,0.376,0.008
26/04/2022,08:19:22,0.492,1.0,0.384,0.008
26/04/2022,08:20:30,0.500,1.0,0.393,0.009
26/04/2022,08:22:23,0.510,1.0,0.409,0.016
26/04/2022,08:23:30,0.520,1.0,0.419,0.01
26/04/2022,08:25:24,0.523,1.0,0.435,0.016
26/04/2022,08:26:22,0.535,1.0,0.444,0.009
26/04/2022,08:27:22,0.547,1.0,0.453,0.009
26/04/2022,08:28:22,0.551,1.0,0.462,0.009
26/04/2022,08:29:22,0.556,1.0,0.471,0.009
26/04/2022,08:30:30,0.563,1.0,0.482,0.011
26/04/2022,08:32:23,0.576,1.0,0.5,0.018
26/04/2022,08:33:22,0.578,1.0,0.509,0.009
26/04/2022,08:34:22,0.583,1.0,0.519,0.01
26/04/2022,08:35:22,0.589,1.0,0.529,0.01
26/04/2022,08:36:22,0.594,1.0,0.539,0.01
26/04/2022,08:37:22,0.583,1.0,0.549,0.01
26/04/2022,08:38:22,0.604,1.0,0.559,0.01
26/04/2022,08:39:22,0.614,1.0,0.569,0.01
26/04/2022,08:40:22,0.624,1.0,0.579,0.01
26/04/2022,08:41:22,0.629,1.0,0.589,0.01
26/04/2022,08:42:22,0.637,1.0,0.6,0.011
26/04/2022,08:43:22,0.642,1.0,0.611,0.011
26/04/2022,08:44:22,0.649,1.0,0.621,0.01
26/04/2022,08:45:24,0.655,2.0,0.633,0.012
26/04/2022,08:46:22,0.660,2.0,0.643,0.01
26/04/2022,08:47:23,0.665,2.0,0.654,0.011
26/04/2022,08:48:22,0.677,2.0,0.665,0.011
26/04/2022,08:49:22,0.682,2.0,0.677,0.012
26/04/2022,08:50:22,0.689,2.0,0.688,0.011
26/04/2022,08:51:22,0.695,2.0,0.7,0.012
26/04/2022,08:52:22,0.700,2.0,0.711,0.011
26/04/2022,08:53:30,0.711,2.0,0.725,0.014
26/04/2022,08:55:31,0.722,2.0,0.748,0.023
26/04/2022,08:57:23,0.733,2.0,0.771,0.023
26/04/2022,08:58:22,0.740,2.0,0.783,0.012
26/04/2022,08:59:22,0.746,2.0,0.796,0.013
26/04/2022,09:00:22,0.752,2.0,0.808,0.012
26/04/2022,09:01:22,0.757,2.0,0.821,0.013
26/04/2022,09:02:22,0.762,2.0,0.833,0.012
26/04/2022,09:03:22,0.772,2.0,0.846,0.013
26/04/2022,09:04:22,0.781,2.0,0.859,0.013
26/04/2022,09:05:22,0.785,2.0,0.872,0.013
26/04/2022,09:06:22,0.791,2.0,0.885,0.013
26/04/2022,09:07:22,0.802,2.0,0.899,0.014
26/04/2022,09:08:22,0.807,2.0,0.912,0.013
26/04/2022,09:09:22,0.816,2.0,0.926,0.014
26/04/2022,09:10:22,0.820,2.0,0.939,0.013
26/04/2022,09:11:22,0.821,2.0,0.953,0.014
26/04/2022,09:12:22,0.829,2.0,0.967,0.014
26/04/2022,09:13:22,0.839,2.0,0.98,0.013
26/04/2022,09:14:30,0.850,2.0,0.996,0.016
26/04/2022,09:16:23,0.862,2.0,1.023,0.027
26/04/2022,09:17:22,0.863,2.0,1.037,0.014
26/04/2022,09:18:22,0.871,2.0,1.052,0.015
26/04/2022,09:19:22,0.878,2.0,1.066,0.014
26/04/2022,09:20:22,0.882,2.0,1.081,0.015
26/04/2022,09:21:22,0.642,1.0,1.096,0.015
26/04/2022,09:22:22,0.895,2.0,1.109,0.013
26/04/2022,09:23:22,0.896,2.0,1.124,0.015
26/04/2022,09:24:22,0.914,2.0,1.139,0.015
26/04/2022,09:25:22,0.922,2.0,1.154,0.015
26/04/2022,09:26:22,0.929,2.0,1.17,0.016
26/04/2022,09:27:22,0.932,2.0,1.185,0.015
26/04/2022,09:28:22,0.936,2.0,1.201,0.016
26/04/2022,09:29:22,0.943,2.0,1.217,0.016
26/04/2022,09:30:22,0.949,2.0,1.232,0.015
26/04/2022,09:31:22,0.957,2.0,1.248,0.016
26/04/2022,09:32:22,0.953,2.0,1.264,0.016
26/04/2022,09:33:22,0.973,2.0,1.28,0.016
26/04/2022,09:34:30,0.975,2.0,1.298,0.018
26/04/2022,09:36:23,0.993,2.0,1.329,0.031
26/04/2022,09:37:22,1.001,2.0,1.346,0.017
26/04/2022,09:38:23,1.010,2.0,1.362,0.016
26/04/2022,09:39:22,1.014,2.0,1.379,0.017
26/04/2022,09:40:22,1.022,2.0,1.396,0.017
26/04/2022,09:41:22,1.028,2.0,1.413,0.017
26/04/2022,09:42:22,1.037,2.0,1.43,0.017
26/04/2022,09:43:22,1.041,2.0,1.448,0.018
26/04/2022,09:44:30,1.044,2.0,1.467,0.019
26/04/2022,09:46:23,1.065,2.0,1.5,0.033
26/04/2022,09:47:30,1.077,2.0,1.52,0.02
26/04/2022,09:49:23,1.084,2.0,1.554,0.034
26/04/2022,09:50:22,1.096,3.0,1.572,0.018
26/04/2022,09:51:21,1.097,3.0,1.59,0.018
26/04/2022,09:52:22,1.094,3.0,1.609,0.019
26/04/2022,09:53:22,1.104,3.0,1.627,0.018
26/04/2022,09:54:30,1.117,3.0,1.648,0.021
26/04/2022,09:56:23,1.124,3.0,1.683,0.035
26/04/2022,09:57:30,1.134,3.0,1.704,0.021
26/04/2022,09:59:26,1.141,3.0,1.741,0.037
26/04/2022,10:00:22,1.151,3.0,1.759,0.018
26/04/2022,10:01:22,1.153,3.0,1.778,0.019
26/04/2022,10:02:22,1.160,3.0,1.797,0.019
26/04/2022,10:03:23,1.166,3.0,1.816,0.019
26/04/2022,10:04:23,1.183,3.0,1.836,0.02
26/04/2022,10:05:22,1.184,3.0,1.856,0.02
26/04/2022,10:06:22,1.194,3.0,1.875,0.019
26/04/2022,10:07:23,1.196,3.0,1.895,0.02
26/04/2022,10:08:31,1.193,3.0,1.919,0.024
26/04/2022,10:10:31,1.223,3.0,1.959,0.04
26/04/2022,10:12:23,1.234,3.0,1.997,0.038
26/04/2022,10:13:22,1.243,3.0,2.017,0.02
26/04/2022,10:14:22,1.244,3.0,2.038,0.021
26/04/2022,10:15:23,1.253,3.0,2.059,0.021
26/04/2022,10:16:22,1.262,3.0,2.08,0.021
26/04/2022,10:17:22,1.273,3.0,2.101,0.021
26/04/2022,10:18:22,1.275,3.0,2.122,0.021
26/04/2022,10:19:22,1.282,3.0,2.143,0.021
26/04/2022,10:20:31,1.292,3.0,2.168,0.025
26/04/2022,10:22:22,1.296,3.0,2.208,0.04
26/04/2022,10:23:30,1.298,3.0,2.232,0.024
26/04/2022,10:25:22,1.311,3.0,2.273,0.041
26/04/2022,10:26:22,1.315,3.0,2.295,0.022
26/04/2022,10:27:22,1.329,3.0,2.317,0.022
26/04/2022,10:28:22,1.338,3.0,2.339,0.022
26/04/2022,10:29:22,1.348,3.0,2.362,0.023
26/04/2022,10:30:22,1.351,3.0,2.384,0.022
26/04/2022,10:31:22,1.353,3.0,2.406,0.022
26/04/2022,10:32:23,1.354,3.0,2.429,0.023
26/04/2022,10:33:30,1.362,3.0,2.455,0.026
26/04/2022,10:35:23,1.381,3.0,2.497,0.042
26/04/2022,10:36:23,1.389,3.0,2.52,0.023
26/04/2022,10:37:23,1.390,3.0,2.543,0.023
26/04/2022,10:38:34,1.394,3.0,2.571,0.028
26/04/2022,10:40:23,1.401,3.0,2.613,0.042
26/04/2022,10:41:24,1.412,3.0,2.637,0.024
26/04/2022,10:42:22,1.413,3.0,2.66,0.023
26/04/2022,10:43:30,1.426,3.0,2.687,0.027
26/04/2022,10:44:22,1.424,3.0,2.708,0.021
26/04/2022,10:45:22,1.426,3.0,2.731,0.023
26/04/2022,10:46:30,1.435,3.0,2.758,0.027
26/04/2022,10:48:23,1.445,3.0,2.803,0.045
26/04/2022,10:49:22,1.449,3.0,2.827,0.024
26/04/2022,10:50:22,1.452,3.0,2.851,0.024
26/04/2022,10:51:22,1.464,3.0,2.876,0.025
26/04/2022,10:52:22,1.472,3.0,2.9,0.024
26/04/2022,10:53:22,1.470,3.0,2.925,0.025
26/04/2022,10:54:22,1.478,3.0,2.949,0.024
26/04/2022,10:55:22,1.476,3.0,2.974,0.025
26/04/2022,10:56:22,1.481,3.0,2.998,0.024
26/04/2022,10:57:22,1.483,3.0,3.023,0.025
26/04/2022,10:58:22,1.480,3.0,3.048,0.025
26/04/2022,10:59:30,1.492,3.0,3.076,0.028
26/04/2022,11:01:23,1.500,3.0,3.123,0.047
26/04/2022,11:02:23,1.507,3.0,3.148,0.025
26/04/2022,11:03:22,1.509,3.0,3.173,0.025
26/04/2022,11:04:22,1.515,3.0,3.198,0.025
26/04/2022,11:05:22,1.526,4.0,3.223,0.025
26/04/2022,11:06:22,1.521,3.0,3.249,0.026
26/04/2022,11:07:22,1.521,3.0,3.274,0.025
26/04/2022,11:08:22,1.533,4.0,3.3,0.026
26/04/2022,11:09:22,1.537,4.0,3.325,0.025
26/04/2022,11:10:22,1.531,4.0,3.351,0.026